SCP
0 0 -0 -0 -0 0 -0 -0 0 -0 -0 -0 -0 -0 -0 -0 -0 -0 -0 -0 -0 -0 -0 -0 -0 -0 -0 -0 -0 -0 -0 -0 -0 -0 -0 -0 -0 -0 -0 0 0 0 -0
0 0 -0 -0 -0 -0 -0 0 0 -0 -0 -0 -0 -0 -0 -0 -0 -0 -0 -0 -0 -0 -0 -0 -0 -0 -0 -0 -0 -0 -0 -0 -0 0 0 0 -0 -0 -0 -0 -0 0 -0
0 0 0 -0 -0 -0 -0 0 0 0 -0 -0 -0 -0 -0 -0 -0 -0 -0 -0 -0 -0 -0 -0 -0 -0 -0 -0 -0 -0 -0 -0 -0 -0 -0 0 0 -0 -0 -0 -0 -0 -0
0 0 0 -0 -0 0 -0 -0 -0 0 0 -0 -0 -0 -0 -0 -0 -0 -0 -0 -0 -0 -0 -0 -0 0 -0 0 -0 -0 -0 -0 -0 -0 0 0 0 -0 -0 -0 -0 -0 0
0 0 0 -0 -0 -0 0 -0 0 0 0 -0 -0 -0 -0 -0 -0 -0 -0 -0 -0 -0 -0 0 0 -0 -0 -0 -0 -0 -0 -0 -0 0 0 0 0 0 -0 -0 0 0 0
0 0 0 -0 -0 0 0 0 0 -0 0 0 -0 -0 -0 -0 -0 -0 -0 -0 -0 -0 0 0 0 -0 -0 -0 -0 -0 -0 -0 -0 0 0 0 0 -0 -0 -0 0 0 0
0 0 0 -0 -0 0 0 0 -0 0 0 0 0 0 0 -0 -0 -0 -0 -0 0 0 -0 -0 -0 -0 -0 -0 -0 -0 -0 -0 0 0 0 0 0 -0 -0 -0 0 0 0
0 0 0 -0 -0 -0 0 0 0 -0 0 0 0 0 0 -0 -0 -0 -0 -0 -0 -0 -0 -0 -0 -0 -0 -0 -0 -0 -0 0 0 0 0 0 0 -0 0 0 0 0 0
0 0 0 0 0 -0 -0 -0 -0 -0 0 0 0 0 0 0 -0 -0 -0 -0 -0 -0 -0 -0 -0 -0 -0 -0 -0 -0 -0 -0 0 0 0 0 0 0 0 0 0 0 0
0 0 0 0 0 0 0 -0 -0 -0 0 0 0 0 0 0 0 0 0 -0 -0 -0 -0 -0 -0 -0 -0 -0 -0 -0 0 0 0 0 0 0 0 0 0 0 0 0 0
-0 -0 0 0 0 0 0 -0 -0 -0 0 0 0 0 0 0 0 0 -0 -0 -0 -0 -0 -0 0 0 0 0 0 0 0 0 0 0 0 0 0 0 0 0 0 0 0
0 -0 -0 -0 0 0 0 0 0 0 0 0 0 -0 0 -0 -0 -0 -0 -0 -0 -0 0 0 0 0 0 0 0 0 0 0 0 0 0 0 0 0 0 0 0 0 0
0 0 -0 -0 -0 -0 0 0 0 0 0 0 0 0 -0 -0 -0 -0 -0 0 0 0 0 0 0 0 0 0 0 0 0 0 0 0 0 0 0 0 0 0 0 0 0
-0 -0 -0 -0 -0 -0 -0 -0 -0 -0 0 0 0 -0 -0 -0 -0 -0 0 0 0 0 0 0 0 0 0 0 0 0 0 0 0 0 0 0 0 0 0 0 0 0 0
-0 -0 -0 -0 -0 -0 -0 -0 -0 -0 -0 0 0 -0 -0 -0 -0 0 0 0 0 0 0 0 0 0 0 0 0 0 0 0 0 0 0 0 0 0 0 0 0 0 0
-0 -0 -0 -0 -0 -0 -0 -0 -0 -0 -0 -0 -0 -0 -0 -0 0 0 0 0 0 0 0 0 0 0 0 0 0 0 0 0 0 0 0 0 0 0 0 0 0 0 0
0 -0 -0 -0 -0 -0 -0 -0 -0 -0 -0 -0 -0 -0 -0 -0 0 0 0 0 0 0 0 0 0 0 0 0 0 0 0 0 0 0 0 0 0 0 0 0 0 0 0
0 0 0 0 -0 -0 -0 -0 0 -0 0 0 0 0 0 -0 0 0 0 0 0 0 0 0 0 0 0 0 0 0 0 0 0 0 0 0 0 0 0 0 0 0 0
0 0 0 0 0 0 0 0 0 0 0 0 0 0 0 0 0 0 0 0 0 0 0 0 0 0 0 0 0 0 0 0 0 0 0 0 0 0 0 0 0 0 0
0 0 0 0 0 0 0 0 0 0 0 0 0 0 0 0 0 0 0 0 0 0 0 0 0 0 0 0 0 0 0 0 0 0 0 0 0 0 0 0 0 0 0
0 0 0 0 0 0 0 0 0 0 0 0 0 0 0 0 0 0 0 0 0 0 0 0 0 0 0 0 0 0 0 0 0 0 0 0 0 0 0 0 0 0 0
0 0 0 0 0 0 0 0 0 0 0 0 0 0 0 0 0 0 0 0 0 0 0 0 0 0 0 0 0 0 0 0 0 0 0 0 0 0 0 0 0 0 0
0 0 0 0 0 0 0 0 0 0 0 0 0 0 0 0 0 0 0 0 0 0 0 0 0 0 0 0 0 0 0 0 0 0 0 0 0 0 0 0 0 0 0
0 0 0 0 0 0 0 0 0 0 0 0 0 0 0 0 0 0 0 0 0 0 0 0 0 0 0 0 0 0 0 0 0 0 0 0 0 0 0 0 0 0 0
0 0 0 0 0 0 0 0 0 0 0 0 0 0 0 0 0 0 0 0 0 0 0 0 0 0 0 0 0 0 0 0 0 0 0 0 0 0 0 0 0 0 0
0 0 0 0 0 0 0 0 0 0 0 0 0 0 0 0 0 0 0 0 0 0 0 0 0 0 0 0 0 0 0 0 0 0 0 0 0 0 0 0 0 0 0
Wind_Speed_500mb
22 15 15 20 22 24 27 30 30 31 32 33 30 27 25 24 22 20 20 21 22 23 26 31 35 37 41 41 38 34 36 34 30 34 40 39 37 45 45 44 39 38 41
22 19 19 19 28 24 28 28 28 30 29 29 27 25 24 21 21 20 20 22 25 27 31 34 37 39 36 36 37 36 36 33 29 32 31 39 41 43 42 38 32 40 43
22 22 24 23 28 29 28 29 30 30 27 27 25 21 18 16 17 19 21 28 30 32 32 35 37 34 31 31 32 34 36 33 30 37 42 40 41 42 38 40 40 40 40
24 26 26 25 28 34 31 29 29 27 24 21 24 22 17 15 16 20 26 32 31 33 33 35 35 31 30 30 31 33 33 30 35 36 37 40 41 38 41 43 41 41 42
27 27 25 25 28 36 35 32 29 29 24 21 23 24 19 20 22 25 32 31 33 34 34 33 32 28 30 33 36 33 33 30 32 35 39 40 41 41 40 39 39 39 39
31 28 28 27 27 35 38 37 34 28 27 26 24 27 24 21 20 31 32 31 33 32 32 32 31 32 31 31 33 34 32 32 32 35 37 38 39 37 37 36 35 35 36
33 32 31 26 25 30 34 34 28 30 30 24 19 24 27 23 26 26 30 30 31 33 33 32 31 28 23 25 28 31 32 31 30 32 34 35 36 34 32 32 32 31 31
31 33 33 28 27 27 30 31 31 31 31 25 20 22 22 29 23 20 27 26 27 29 30 29 28 26 23 21 27 29 29 27 27 28 29 31 30 29 28 28 28 28 29
31 32 33 30 29 28 24 25 28 30 28 25 21 21 19 24 24 20 26 24 25 25 25 26 26 25 22 20 22 25 25 25 23 23 24 26 26 25 25 24 24 23 24
33 33 32 30 26 26 28 26 26 26 24 24 24 23 19 20 13 14 23 23 21 21 22 23 24 24 22 18 17 19 20 20 19 20 20 21 21 21 20 18 19 20 20
34 35 35 31 29 26 24 26 25 24 24 24 22 20 17 16 17 19 24 23 21 19 20 20 20 19 17 16 12 16 16 15 15 15 15 16 16 17 17 16 18 17 17
38 38 35 35 32 31 27 27 27 25 24 23 22 20 21 20 18 20 23 22 20 17 17 17 15 13 11 11 9 8 11 11 10 10 10 11 12 14 14 15 13 11 12
37 37 36 34 34 33 32 29 27 25 24 23 22 22 21 20 21 21 21 20 18 16 14 13 11 11 10 9 7 6 4 6 5 3 4 6 9 12 13 12 13 10 10
46 43 40 39 35 33 33 31 28 26 25 22 20 19 20 21 20 20 21 20 18 15 12 10 9 9 8 7 9 9 7 4 3 3 4 6 9 13 13 12 12 12 14
48 46 46 43 41 38 37 35 32 29 25 23 21 19 18 17 17 18 18 18 16 15 14 13 11 10 9 10 10 10 10 9 8 8 9 10 11 12 9 11 10 9 6
51 49 47 46 42 42 39 38 34 33 29 28 25 22 19 18 17 17 17 17 17 16 15 14 14 13 13 13 12 11 12 12 12 12 12 13 13 11 10 9 8 11 12
60 53 53 49 43 44 41 40 39 35 33 30 28 27 25 23 22 22 20 20 19 18 18 18 18 18 18 18 18 17 15 13 13 16 17 16 14 11 8 10 10 12 11
62 64 60 57 53 48 48 45 42 40 37 33 32 32 31 28 27 25 24 22 22 23 22 22 22 21 20 20 19 18 17 16 16 19 18 16 16 12 12 12 13 13 18
64 63 64 66 64 58 52 50 46 43 44 41 38 36 34 33 33 30 29 27 27 27 28 25 23 23 22 21 19 19 21 19 18 21 20 19 18 18 16 15 15 13 18
70 66 64 63 68 66 61 56 54 51 51 50 48 44 42 41 38 37 36 35 34 31 29 28 27 25 24 24 25 30 21 20 23 25 26 24 23 23 22 18 17 17 18
69 69 68 66 66 69 72 70 67 64 59 57 55 50 48 47 46 45 44 42 41 39 35 29 31 30 31 33 29 19 21 26 29 30 29 27 28 28 27 22 20 20 20
66 66 65 67 68 70 73 72 72 67 65 60 57 57 55 53 51 52 50 48 46 45 43 40 42 37 34 25 28 29 30 26 30 28 32 31 31 33 33 26 22 24 27
74 71 67 66 67 68 69 70 75 74 72 70 68 64 61 59 55 55 53 51 50 50 49 47 47 41 37 33 34 33 18 22 23 30 36 37 38 36 41 35 28 27 28
73 68 70 67 67 65 67 70 74 79 80 75 73 67 64 62 60 58 56 55 53 55 53 49 50 45 44 39 43 43 44 44 26 20 42 49 48 51 46 43 34 30 29
72 68 67 69 68 67 70 70 70 75 77 76 75 72 70 66 64 62 62 60 59 60 58 51 55 53 51 51 51 52 53 52 54 48 32 51 53 50 50 47 37 36 30
79 78 72 69 68 69 71 71 71 71 73 76 74 74 73 66 65 67 66 64 61 63 64 58 54 57 56 58 55 53 54 57 55 56 58 45 57 50 53 50 46 35 34
Wind_Direction_500mb
178 172 161 149 139 127 121 119 119 116 115 112 110 111 109 104 94 96 101 95 87 82 80 85 87 85 86 86 86 79 81 80 83 91 83 79 75 82 77 76 77 73 72
177 162 159 149 146 143 132 127 125 121 119 114 112 110 109 98 86 94 99 98 87 87 90 92 91 96 85 78 77 78 73 72 81 88 85 85 79 91 86 88 80 73 68
184 167 158 152 152 147 139 135 132 128 127 121 118 117 113 97 88 96 100 92 91 93 95 96 98 93 84 83 83 85 70 70 84 85 84 85 84 82 82 80 75 72 72
178 171 167 161 159 152 144 142 138 135 130 126 127 130 115 103 100 106 104 97 95 95 97 97 98 94 93 97 89 73 73 77 77 85 86 87 87 82 76 73 73 71 70
173 167 165 163 160 160 152 141 140 139 135 124 127 130 121 105 99 109 102 98 95 96 99 102 103 101 93 90 91 80 80 89 86 89 87 84 82 79 77 75 73 71 69
164 159 157 155 156 164 166 162 154 147 146 134 119 137 131 115 118 112 103 99 100 103 106 106 107 102 93 88 89 87 88 86 87 87 85 84 83 81 78 76 75 71 67
156 152 151 147 146 156 167 177 177 151 156 150 136 134 136 128 119 122 111 107 106 105 105 107 107 105 100 89 86 86 87 89 88 88 87 84 82 81 79 76 72 69 66
159 153 150 148 146 145 153 164 159 153 156 161 155 147 149 124 132 124 116 110 104 100 102 107 112 115 112 100 94 90 89 87 87 85 84 83 80 78 75 71 68 64 62
168 160 155 154 153 146 146 146 149 152 160 163 164 161 154 136 140 133 128 117 109 109 113 116 120 119 113 98 89 93 94 91 86 83 80 77 76 71 66 63 61 58 56
176 170 163 158 159 155 153 153 152 152 154 157 167 171 159 155 161 129 136 127 125 124 125 126 128 128 124 115 100 94 93 96 92 83 77 73 67 61 55 50 52 49 41
184 180 174 167 163 161 159 155 155 153 153 154 160 165 166 166 168 154 147 144 141 138 137 139 140 140 134 127 120 109 109 107 96 87 76 67 57 48 38 35 36 30 23
190 185 185 178 173 169 169 167 164 163 162 163 165 166 166 165 161 161 158 153 151 147 147 149 147 147 146 136 140 123 124 123 112 97 81 64 46 32 22 17 19 27 14
188 191 190 190 185 181 178 176 174 174 173 172 170 170 168 165 163 162 169 166 165 163 160 157 160 165 164 158 167 174 157 137 134 95 56 34 17 8 2 356 359 8 352
197 196 196 196 198 194 193 190 187 184 182 181 178 176 176 173 171 173 175 178 178 178 175 173 175 179 183 181 186 206 220 216 195 241 294 324 346 351 350 352 358 4 31
205 201 204 204 206 203 201 201 198 195 194 193 191 189 187 179 180 182 185 189 191 194 194 197 198 200 205 209 209 213 221 236 240 250 271 303 326 341 352 352 9 31 337
214 213 210 211 209 210 208 212 212 207 202 204 203 202 201 196 198 200 199 199 203 207 209 213 218 216 215 217 219 223 225 228 241 249 266 291 306 319 324 335 351 354 0
215 219 217 217 218 216 216 219 218 222 214 216 211 213 212 214 212 210 216 215 214 217 220 223 225 228 225 223 222 220 222 225 237 254 266 278 285 288 298 322 339 340 336
217 216 221 223 223 225 223 221 224 226 228 225 221 222 223 224 228 228 229 231 232 233 232 231 234 238 237 237 237 236 235 242 255 261 268 278 280 271 285 306 312 337 336
224 219 220 225 227 227 228 228 228 229 233 233 230 229 233 235 237 241 242 242 245 246 246 241 243 250 245 256 266 267 266 260 260 263 267 270 274 270 270 290 296 323 332
229 229 226 227 229 232 232 231 233 232 232 234 235 235 235 238 242 245 247 248 250 255 257 245 254 260 254 255 255 262 253 256 256 261 267 268 264 259 260 279 296 317 328
227 229 226 226 231 231 232 231 230 233 233 233 236 238 239 240 242 245 248 248 250 257 261 263 258 252 252 252 259 254 253 257 258 259 259 266 265 258 260 273 284 306 307
226 227 229 232 233 234 235 237 239 240 239 242 242 242 242 243 244 246 248 249 251 253 252 249 249 248 254 238 244 261 271 267 252 243 247 256 261 260 258 264 279 298 299
226 227 230 233 235 235 237 239 239 242 244 243 242 242 243 245 245 246 249 251 253 252 252 251 246 247 245 242 247 249 258 249 250 238 242 249 255 268 262 262 272 280 293
231 234 235 237 239 239 238 242 243 243 245 247 249 249 248 247 250 252 252 251 252 252 250 249 242 248 244 242 248 250 254 255 254 234 238 233 239 238 250 249 258 266 284
233 235 238 240 242 244 243 244 245 245 249 253 253 255 255 254 254 255 255 253 252 252 250 248 243 244 243 246 249 255 258 257 256 255 245 220 229 229 240 241 247 260 274
233 235 237 239 243 245 245 245 247 247 249 251 253 253 255 256 255 255 255 255 254 254 251 250 248 244 245 248 254 257 260 262 266 259 258 255 232 237 231 236 247 256 269
Wind_Speed_850mb
22 15 15 20 22 24 27 30 30 31 32 33 30 27 25 24 22 20 20 21 22 23 26 31 35 37 41 41 38 34 36 34 30 34 40 39 37 45 45 44 39 38 41
22 19 19 19 28 24 28 28 28 30 29 29 27 25 24 21 21 20 20 22 25 27 31 34 37 39 36 36 37 36 36 33 29 32 31 39 41 43 42 38 32 40 43
22 22 24 23 28 29 28 29 30 30 27 27 25 21 18 16 17 19 21 28 30 32 32 35 37 34 31 31 32 34 36 33 30 37 42 40 41 42 38 40 40 40 40
24 26 26 25 28 34 31 29 29 27 24 21 24 22 17 15 16 20 26 32 31 33 33 35 35 31 30 30 31 33 33 30 35 36 37 40 41 38 41 43 41 41 42
27 27 25 25 28 36 35 32 29 29 24 21 23 24 19 20 22 25 32 31 33 34 34 33 32 28 30 33 36 33 33 30 32 35 39 40 41 41 40 39 39 39 39
31 28 28 27 27 35 38 37 34 28 27 26 24 27 24 21 20 31 32 31 33 32 32 32 31 32 31 31 33 34 32 32 32 35 37 38 39 37 37 36 35 35 36
33 32 31 26 25 30 34 34 28 30 30 24 19 24 27 23 26 26 30 30 31 33 33 32 31 28 23 25 28 31 32 31 30 32 34 35 36 34 32 32 32 31 31
31 33 33 28 27 27 30 31 31 31 31 25 20 22 22 29 23 20 27 26 27 29 30 29 28 26 23 21 27 29 29 27 27 28 29 31 30 29 28 28 28 28 29
31 32 33 30 29 28 24 25 28 30 28 25 21 21 19 24 24 20 26 24 25 25 25 26 26 25 22 20 22 25 25 25 23 23 24 26 26 25 25 24 24 23 24
33 33 32 30 26 26 28 26 26 26 24 24 24 23 19 20 13 14 23 23 21 21 22 23 24 24 22 18 17 19 20 20 19 20 20 21 21 21 20 18 19 20 20
34 35 35 31 29 26 24 26 25 24 24 24 22 20 17 16 17 19 24 23 21 19 20 20 20 19 17 16 12 16 16 15 15 15 15 16 16 17 17 16 18 17 17
38 38 35 35 32 31 27 27 27 25 24 23 22 20 21 20 18 20 23 22 20 17 17 17 15 13 11 11 9 8 11 11 10 10 10 11 12 14 14 15 13 11 12
37 37 36 34 34 33 32 29 27 25 24 23 22 22 21 20 21 21 21 20 18 16 14 13 11 11 10 9 7 6 4 6 5 3 4 6 9 12 13 12 13 10 10
46 43 40 39 35 33 33 31 28 26 25 22 20 19 20 21 20 20 21 20 18 15 12 10 9 9 8 7 9 9 7 4 3 3 4 6 9 13 13 12 12 12 14
48 46 46 43 41 38 37 35 32 29 25 23 21 19 18 17 17 18 18 18 16 15 14 13 11 10 9 10 10 10 10 9 8 8 9 10 11 12 9 11 10 9 6
51 49 47 46 42 42 39 38 34 33 29 28 25 22 19 18 17 17 17 17 17 16 15 14 14 13 13 13 12 11 12 12 12 12 12 13 13 11 10 9 8 11 12
60 53 53 49 43 44 41 40 39 35 33 30 28 27 25 23 22 22 20 20 19 18 18 18 18 18 18 18 18 17 15 13 13 16 17 16 14 11 8 10 10 12 11
62 64 60 57 53 48 48 45 42 40 37 33 32 32 31 28 27 25 24 22 22 23 22 22 22 21 20 20 19 18 17 16 16 19 18 16 16 12 12 12 13 13 18
64 63 64 66 64 58 52 50 46 43 44 41 38 36 34 33 33 30 29 27 27 27 28 25 23 23 22 21 19 19 21 19 18 21 20 19 18 18 16 15 15 13 18
70 66 64 63 68 66 61 56 54 51 51 50 48 44 42 41 38 37 36 35 34 31 29 28 27 25 24 24 25 30 21 20 23 25 26 24 23 23 22 18 17 17 18
69 69 68 66 66 69 72 70 67 64 59 57 55 50 48 47 46 45 44 42 41 39 35 29 31 30 31 33 29 19 21 26 29 30 29 27 28 28 27 22 20 20 20
66 66 65 67 68 70 73 72 72 67 65 60 57 57 55 53 51 52 50 48 46 45 43 40 42 37 34 25 28 29 30 26 30 28 32 31 31 33 33 26 22 24 27
74 71 67 66 67 68 69 70 75 74 72 70 68 64 61 59 55 55 53 51 50 50 49 47 47 41 37 33 34 33 18 22 23 30 36 37 38 36 41 35 28 27 28
73 68 70 67 67 65 67 70 74 79 80 75 73 67 64 62 60 58 56 55 53 55 53 49 50 45 44 39 43 43 44 44 26 20 42 49 48 51 46 43 34 30 29
72 68 67 69 68 67 70 70 70 75 77 76 75 72 70 66 64 62 62 60 59 60 58 51 55 53 51 51 51 52 53 52 54 48 32 51 53 50 50 47 37 36 30
79 78 72 69 68 69 71 71 71 71 73 76 74 74 73 66 65 67 66 64 61 63 64 58 54 57 56 58 55 53 54 57 55 56 58 45 57 50 53 50 46 35 34
Wind_Direction_850mb
178 172 161 149 139 127 121 119 119 116 115 112 110 111 109 104 94 96 101 95 87 82 80 85 87 85 86 86 86 79 81 80 83 91 83 79 75 82 77 76 77 73 72
177 162 159 149 146 143 132 127 125 121 119 114 112 110 109 98 86 94 99 98 87 87 90 92 91 96 85 78 77 78 73 72 81 88 85 85 79 91 86 88 80 73 68
184 167 158 152 152 147 139 135 132 128 127 121 118 117 113 97 88 96 100 92 91 93 95 96 98 93 84 83 83 85 70 70 84 85 84 85 84 82 82 80 75 72 72
178 171 167 161 159 152 144 142 138 135 130 126 127 130 115 103 100 106 104 97 95 95 97 97 98 94 93 97 89 73 73 77 77 85 86 87 87 82 76 73 73 71 70
173 167 165 163 160 160 152 141 140 139 135 124 127 130 121 105 99 109 102 98 95 96 99 102 103 101 93 90 91 80 80 89 86 89 87 84 82 79 77 75 73 71 69
164 159 157 155 156 164 166 162 154 147 146 134 119 137 131 115 118 112 103 99 100 103 106 106 107 102 93 88 89 87 88 86 87 87 85 84 83 81 78 76 75 71 67
156 152 151 147 146 156 167 177 177 151 156 150 136 134 136 128 119 122 111 107 106 105 105 107 107 105 100 89 86 86 87 89 88 88 87 84 82 81 79 76 72 69 66
159 153 150 148 146 145 153 164 159 153 156 161 155 147 149 124 132 124 116 110 104 100 102 107 112 115 112 100 94 90 89 87 87 85 84 83 80 78 75 71 68 64 62
168 160 155 154 153 146 146 146 149 152 160 163 164 161 154 136 140 133 128 117 109 109 113 116 120 119 113 98 89 93 94 91 86 83 80 77 76 71 66 63 61 58 56
176 170 163 158 159 155 153 153 152 152 154 157 167 171 159 155 161 129 136 127 125 124 125 126 128 128 124 115 100 94 93 96 92 83 77 73 67 61 55 50 52 49 41
184 180 174 167 163 161 159 155 155 153 153 154 160 165 166 166 168 154 147 144 141 138 137 139 140 140 134 127 120 109 109 107 96 87 76 67 57 48 38 35 36 30 23
190 185 185 178 173 169 169 167 164 163 162 163 165 166 166 165 161 161 158 153 151 147 147 149 147 147 146 136 140 123 124 123 112 97 81 64 46 32 22 17 19 27 14
188 191 190 190 185 181 178 176 174 174 173 172 170 170 168 165 163 162 169 166 165 163 160 157 160 165 164 158 167 174 157 137 134 95 56 34 17 8 2 356 359 8 352
197 196 196 196 198 194 193 190 187 184 182 181 178 176 176 173 171 173 175 178 178 178 175 173 175 179 183 181 186 206 220 216 195 241 294 324 346 351 350 352 358 4 31
205 201 204 204 206 203 201 201 198 195 194 193 191 189 187 179 180 182 185 189 191 194 194 197 198 200 205 209 209 213 221 236 240 250 271 303 326 341 352 352 9 31 337
214 213 210 211 209 210 208 212 212 207 202 204 203 202 201 196 198 200 199 199 203 207 209 213 218 216 215 217 219 223 225 228 241 249 266 291 306 319 324 335 351 354 0
215 219 217 217 218 216 216 219 218 222 214 216 211 213 212 214 212 210 216 215 214 217 220 223 225 228 225 223 222 220 222 225 237 254 266 278 285 288 298 322 339 340 336
217 216 221 223 223 225 223 221 224 226 228 225 221 222 223 224 228 228 229 231 232 233 232 231 234 238 237 237 237 236 235 242 255 261 268 278 280 271 285 306 312 337 336
224 219 220 225 227 227 228 228 228 229 233 233 230 229 233 235 237 241 242 242 245 246 246 241 243 250 245 256 266 267 266 260 260 263 267 270 274 270 270 290 296 323 332
229 229 226 227 229 232 232 231 233 232 232 234 235 235 235 238 242 245 247 248 250 255 257 245 254 260 254 255 255 262 253 256 256 261 267 268 264 259 260 279 296 317 328
227 229 226 226 231 231 232 231 230 233 233 233 236 238 239 240 242 245 248 248 250 257 261 263 258 252 252 252 259 254 253 257 258 259 259 266 265 258 260 273 284 306 307
226 227 229 232 233 234 235 237 239 240 239 242 242 242 242 243 244 246 248 249 251 253 252 249 249 248 254 238 244 261 271 267 252 243 247 256 261 260 258 264 279 298 299
226 227 230 233 235 235 237 239 239 242 244 243 242 242 243 245 245 246 249 251 253 252 252 251 246 247 245 242 247 249 258 249 250 238 242 249 255 268 262 262 272 280 293
231 234 235 237 239 239 238 242 243 243 245 247 249 249 248 247 250 252 252 251 252 252 250 249 242 248 244 242 248 250 254 255 254 234 238 233 239 238 250 249 258 266 284
233 235 238 240 242 244 243 244 245 245 249 253 253 255 255 254 254 255 255 253 252 252 250 248 243 244 243 246 249 255 258 257 256 255 245 220 229 229 240 241 247 260 274
233 235 237 239 243 245 245 245 247 247 249 251 253 253 255 256 255 255 255 255 254 254 251 250 248 244 245 248 254 257 260 262 266 259 258 255 232 237 231 236 247 256 269